Weather History for Newport Airport, OR

Change the Weather History Date:

Saturday, May 12, 2012

  Actual Average Record
Temperature  
Mean Temperature 54 °F -  
Max Temperature 68 °F 54 °F 71 °F (2014)
Min Temperature 41 °F 45 °F 35 °F (2006)
Degree Days  
Heating Degree Days 10    
Growing Degree Days 4 (Base 50)    
Moisture  
Dew Point 41 °F    
Average Humidity 66    
Maximum Humidity 100    
Minimum Humidity 28    
Precipitation  
Precipitation 0.00 in - - ()
Sea Level Pressure  
Sea Level Pressure 30.13 in    
Wind  
Wind Speed 6 mph (NNE)    
Max Wind Speed 15 mph    
Max Gust Speed 22 mph    
Visibility 10 miles    
Events      
Averages and records for this station are not official NWS values.
T = Trace of Precipitation, MM = Missing Value Source: NWS Daily Summary

Daily Weather History Graph

Daily Weather History Graph

Search for Another Location

Airport:

Trip Planner

Search our weather history database for the weather conditions in past years. The results will help you decide how hot, cold, wet, or windy it might be!

Date:

Astronomy

May. 12, 2012 Rise Set
Actual Time 5:51 AM PDT 8:34 PM PDT
Civil Twilight 5:17 AM PDT 9:08 PM PDT
Nautical Twilight 4:35 AM PDT 9:50 PM PDT
Astronomical Twilight 3:46 AM PDT 10:40 PM PDT
Moon 1:46 AM PDT (5/12) 12:42 PM PDT (5/12)
Length of Visible Light 15h 50m
Length of Day
14h 43m
Waning Gibbous, 51% of the Moon is Illuminated
May 12
Waning Gibbous
May 12
Last Quarter
May 20
New
May 28
First Quarter
Jun 4
Full

Hourly Weather History & Observations

Time (PDT) Temp. Windchill Dew Point Humidity Pressure Visibility Wind Dir Wind Speed Gust Speed Precip Events Conditions
12:15 AM 41.0 °F - 37.4 °F 87% 30.13 in 10.0 mi Calm Calm - N/A   Clear
12:35 AM 41.0 °F - 37.4 °F 87% 30.13 in 10.0 mi Calm Calm - N/A   Clear
12:55 AM 41.0 °F - 37.4 °F 87% 30.12 in 10.0 mi Calm Calm - N/A   Clear
1:15 AM 42.8 °F - 41.0 °F 93% 30.13 in 10.0 mi Calm Calm - N/A   Clear
1:35 AM 41.0 °F - 37.4 °F 87% 30.13 in 7.0 mi Calm Calm - N/A   Clear
1:55 AM 41.0 °F - 37.4 °F 87% 30.13 in 10.0 mi Calm Calm - N/A   Clear
2:15 AM 42.8 °F - 41.0 °F 93% 30.13 in 10.0 mi Calm Calm - N/A   Clear
2:35 AM 42.8 °F 39.3 °F 41.0 °F 93% 30.12 in 10.0 mi East 5.8 mph - N/A   Clear
3:15 AM 41.0 °F - 39.2 °F 93% 30.12 in 10.0 mi Calm Calm - N/A   Clear
3:35 AM 44.6 °F 40.2 °F 41.0 °F 87% 30.12 in 10.0 mi East 8.1 mph - N/A   Clear
3:55 AM 46.4 °F 45.2 °F 41.0 °F 81% 30.12 in 10.0 mi East 3.5 mph - N/A   Clear
4:15 AM 46.4 °F 42.4 °F 41.0 °F 81% 30.12 in 10.0 mi East 8.1 mph - N/A   Clear
4:35 AM 46.4 °F 41.9 °F 41.0 °F 81% 30.11 in 10.0 mi East 9.2 mph - N/A   Clear
4:55 AM 46.4 °F 41.9 °F 39.2 °F 76% 30.11 in 10.0 mi East 9.2 mph - N/A   Clear
5:15 AM 48.2 °F - 39.2 °F 71% 30.12 in 10.0 mi East 8.1 mph - N/A   Clear
5:35 AM 46.4 °F 42.9 °F 37.4 °F 71% 30.12 in 10.0 mi East 6.9 mph - N/A   Clear
5:55 AM 48.2 °F - 37.4 °F 66% 30.12 in 10.0 mi East 5.8 mph - N/A   Clear
6:15 AM 46.4 °F 44.3 °F 37.4 °F 71% 30.13 in 10.0 mi East 4.6 mph - N/A   Clear
6:35 AM 50.0 °F - 37.4 °F 62% 30.13 in 10.0 mi East 5.8 mph - N/A   Clear
6:55 AM 50.0 °F - 37.4 °F 62% 30.13 in 10.0 mi East 6.9 mph - N/A   Clear
7:15 AM 51.8 °F - 37.4 °F 58% 30.13 in 10.0 mi East 9.2 mph - N/A   Clear
7:35 AM 53.6 °F - 37.4 °F 54% 30.14 in 10.0 mi East 6.9 mph - N/A   Clear
7:55 AM 55.4 °F - 37.4 °F 51% 30.14 in 10.0 mi East 6.9 mph - N/A   Clear
8:55 AM 60.8 °F - 35.6 °F 39% 30.14 in 10.0 mi East 10.4 mph - N/A   Clear
9:15 AM 62.6 °F - 33.8 °F 34% 30.14 in 10.0 mi ENE 9.2 mph - N/A   Clear
9:35 AM 64.4 °F - 35.6 °F 34% 30.14 in 10.0 mi ENE 10.4 mph - N/A   Clear
9:55 AM 66.2 °F - 33.8 °F 30% 30.14 in 10.0 mi ENE 9.2 mph - N/A   Clear
10:15 AM 68.0 °F - 33.8 °F 28% 30.14 in 10.0 mi ENE 8.1 mph - N/A   Clear
10:55 AM 68.0 °F - 41.0 °F 37% 30.14 in 10.0 mi NW 8.1 mph - N/A   Clear
11:15 AM 64.4 °F - 41.0 °F 42% 30.14 in 10.0 mi NW 9.2 mph - N/A   Clear
11:35 AM 64.4 °F - 41.0 °F 42% 30.14 in 10.0 mi NNW 10.4 mph - N/A   Clear
11:55 AM 64.4 °F - 39.2 °F 40% 30.14 in 10.0 mi NNW 10.4 mph - N/A   Clear
12:35 PM 64.4 °F - 37.4 °F 37% 30.15 in 10.0 mi NNW 12.7 mph - N/A   Clear
12:55 PM 62.6 °F - 39.2 °F 42% 30.15 in 10.0 mi NNW 13.8 mph - N/A   Clear
1:15 PM 62.6 °F - 41.0 °F 45% 30.14 in 10.0 mi NNW 11.5 mph - N/A   Clear
1:35 PM 62.6 °F - 39.2 °F 42% 30.14 in 10.0 mi NNW 15.0 mph - N/A   Clear
1:55 PM 62.6 °F - 42.8 °F 48% 30.14 in 10.0 mi NNW 12.7 mph - N/A   Clear
2:15 PM 64.4 °F - 42.8 °F 45% 30.14 in 10.0 mi NNW 15.0 mph - N/A   Clear
2:35 PM 62.6 °F - 44.6 °F 52% 30.13 in 10.0 mi NNW 13.8 mph - N/A   Clear
2:55 PM 62.6 °F - 42.8 °F 48% 30.13 in 10.0 mi NNW 12.7 mph - N/A   Clear
3:15 PM 64.4 °F - 41.0 °F 42% 30.13 in 10.0 mi NNW 13.8 mph 18.4 mph N/A   Clear
3:35 PM 62.6 °F - 41.0 °F 45% 30.13 in 10.0 mi NNW 15.0 mph - N/A   Clear
3:55 PM 64.4 °F - 41.0 °F 42% 30.13 in 10.0 mi North 15.0 mph 20.7 mph N/A   Clear
4:15 PM 64.4 °F - 41.0 °F 42% 30.12 in 10.0 mi NNW 12.7 mph 21.9 mph N/A   Clear
4:35 PM 62.6 °F - 41.0 °F 45% 30.12 in 10.0 mi NNW 11.5 mph 19.6 mph N/A   Clear
4:55 PM 62.6 °F - 41.0 °F 45% 30.12 in 10.0 mi NNW 12.7 mph 19.6 mph N/A   Clear
5:15 PM 62.6 °F - 41.0 °F 45% 30.12 in 10.0 mi NNW 13.8 mph 19.6 mph N/A   Clear
5:55 PM 60.8 °F - 46.4 °F 59% 30.12 in 10.0 mi NNW 11.5 mph 17.3 mph N/A   Clear
6:15 PM 57.2 °F - 50.0 °F 77% 30.12 in 10.0 mi NNW 10.4 mph - N/A   Clear
6:35 PM 55.4 °F - 50.0 °F 82% 30.12 in 10.0 mi North 9.2 mph - N/A   Clear
6:55 PM 55.4 °F - 50.0 °F 82% 30.12 in 10.0 mi NNW 11.5 mph - N/A   Clear
7:15 PM 55.4 °F - 50.0 °F 82% 30.12 in 7.0 mi NNW 10.4 mph - N/A   Clear
7:35 PM 53.6 °F - 50.0 °F 88% 30.13 in 7.0 mi NNW 10.4 mph - N/A   Clear
7:55 PM 53.6 °F - 50.0 °F 88% 30.13 in 7.0 mi North 8.1 mph - N/A   Clear
8:15 PM 51.8 °F - 50.0 °F 94% 30.14 in 7.0 mi NNW 8.1 mph - N/A   Clear
8:35 PM 51.8 °F - 48.2 °F 88% 30.13 in 7.0 mi North 9.2 mph - N/A   Clear
8:55 PM 51.8 °F - 48.2 °F 88% 30.13 in 7.0 mi North 9.2 mph - N/A   Clear
9:15 PM 51.8 °F - 46.4 °F 82% 30.14 in 7.0 mi Calm Calm - N/A   Clear
9:35 PM 50.0 °F - 46.4 °F 87% 30.14 in 7.0 mi Calm Calm - N/A   Clear
10:15 PM 46.4 °F - 44.6 °F 93% 30.14 in 7.0 mi Calm Calm - N/A   Clear
10:55 PM 44.6 °F - 42.8 °F 93% 30.14 in 10.0 mi Calm Calm - N/A   Clear
11:15 PM 44.6 °F - 42.8 °F 93% 30.14 in 10.0 mi Calm Calm - N/A   Clear
11:35 PM 44.6 °F - 42.8 °F 93% 30.14 in 10.0 mi Calm Calm - N/A   Clear
11:55 PM 42.8 °F - 42.8 °F 100% 30.14 in 10.0 mi Calm Calm - N/A   Clear